UFO 10 (USA 146)

Last updated on Mon Oct 20 2025 00:02:45 GMT+0000 (Coordinated Universal Time)

1 25967U 99063A 25292.11998321 -.00000188 00000+0 00000+0 0 9996 2 25967 9.8134 28.4332 0006012 208.6137 171.0841 1.00272129 94935
UTC large
Height (km)
Speed (km/s)
/
Latitude / Longitude
Inclination (degrees)
Orbital Period (minutes)
Azimuth
Elevation
Range (km)
Doppler Factor

Next 0 passes for location: London (51.5072 / 0.1276)

Sorry there are no passes over London.